Weather History for Mackinac Island, MI

Change the Weather History Date:

Sunday, July 14, 2013

  Actual Average Record
Temperature  
Mean Temperature 72 °F -  
Max Temperature 83 °F 71 °F 86 °F (2006)
Min Temperature 62 °F 56 °F 46 °F (1987)
Cooling Degree Days 8    
Growing Degree Days 22 (Base 50)    
Moisture  
Dew Point 60 °F    
Average Humidity 64    
Maximum Humidity 91    
Minimum Humidity 45    
Precipitation  
Precipitation 0.00 in - - ()
Sea Level Pressure  
Sea Level Pressure 30.25 in    
Wind  
Wind Speed 4 mph (SSW)    
Max Wind Speed 9 mph    
Max Gust Speed -    
Visibility 10 miles    
Events      
Averages and records for this station are not official NWS values.
T = Trace of Precipitation, MM = Missing Value Source: NWS Daily Summary

Daily Weather History Graph

Daily Weather History Graph

Search for Another Location

Airport:

Trip Planner

Search our weather history database for the weather conditions in past years. The results will help you decide how hot, cold, wet, or windy it might be!

Date:

Astronomy

Jul. 14, 2013 Rise Set
Actual Time 6:02 AM EDT 9:26 PM EDT
Civil Twilight 5:25 AM EDT 10:02 PM EDT
Nautical Twilight 4:36 AM EDT 10:51 PM EDT
Astronomical Twilight 3:34 AM EDT 11:52 PM EDT
Moon 12:41 PM EDT (7/14) No Moon Set
Length of Visible Light 16h 37m
Length of Day
15h 23m
Waxing Crescent, 35% of the Moon is Illuminated
Jul 14
Waxing Crescent
Jul 15
First Quarter
Jul 22
Full
Jul 29
Last Quarter
Aug 6
New

Hourly Weather History & Observations

Time (EDT) Temp. Heat Index Dew Point Humidity Pressure Visibility Wind Dir Wind Speed Gust Speed Precip Events Conditions
12:16 AM 65.1 °F - 61.0 °F 86% 30.20 in 10.0 mi SW 3.5 mph - N/A   Clear
12:35 AM 64.6 °F - 60.3 °F 86% 30.20 in 10.0 mi SSW 3.5 mph - N/A   Clear
12:56 AM 64.4 °F - 59.9 °F 85% 30.20 in 10.0 mi South 3.5 mph - N/A   Clear
1:16 AM 63.5 °F - 59.9 °F 88% 30.21 in 10.0 mi Calm Calm - N/A   Clear
1:35 AM 64.8 °F - 60.8 °F 87% 30.21 in 10.0 mi SSW 4.6 mph - N/A   Clear
1:56 AM 65.3 °F - 61.0 °F 86% 30.22 in 10.0 mi South 6.9 mph - N/A   Clear
2:16 AM 64.9 °F - 61.2 °F 88% 30.22 in 10.0 mi SSW 5.8 mph - N/A   Clear
2:35 AM 64.9 °F - 61.9 °F 90% 30.22 in 10.0 mi South 8.1 mph - N/A   Clear
2:56 AM 67.3 °F - 61.5 °F 82% 30.22 in 10.0 mi South 8.1 mph - N/A   Clear
3:16 AM 67.1 °F - 60.4 °F 79% 30.23 in 10.0 mi SSW 6.9 mph - N/A   Clear
3:35 AM 66.7 °F - 60.1 °F 79% 30.23 in 10.0 mi South 8.1 mph - N/A   Clear
3:56 AM 66.6 °F - 59.9 °F 79% 30.23 in 10.0 mi South 6.9 mph - N/A   Clear
4:16 AM 64.8 °F - 59.7 °F 84% 30.23 in 10.0 mi SSW 6.9 mph - N/A   Clear
4:35 AM 65.3 °F - 59.9 °F 83% 30.23 in 10.0 mi SSW 4.6 mph - N/A   Clear
4:56 AM 64.8 °F - 59.9 °F 84% 30.23 in 10.0 mi SSW 4.6 mph - N/A   Clear
5:16 AM 64.8 °F - 60.1 °F 85% 30.24 in 10.0 mi SW 3.5 mph - N/A   Clear
5:35 AM 63.9 °F - 60.1 °F 87% 30.24 in 10.0 mi SW 5.8 mph - N/A   Clear
5:56 AM 63.7 °F - 60.3 °F 89% 30.25 in 10.0 mi SSW 3.5 mph - N/A   Clear
6:16 AM 62.8 °F - 59.9 °F 90% 30.25 in 10.0 mi South 3.5 mph - N/A   Clear
6:36 AM 62.8 °F - 60.1 °F 91% 30.25 in 10.0 mi South 5.8 mph - N/A   Clear
6:56 AM 63.0 °F - 60.1 °F 90% 30.25 in 10.0 mi South 3.5 mph - N/A   Clear
7:16 AM 65.1 °F - 61.7 °F 89% 30.25 in 10.0 mi South 5.8 mph - N/A   Clear
7:36 AM 67.6 °F - 63.3 °F 86% 30.25 in 10.0 mi South 4.6 mph - N/A   Clear
7:56 AM 70.5 °F - 61.3 °F 73% 30.26 in 10.0 mi SSW 3.5 mph - N/A   Clear
8:16 AM 72.7 °F - 59.0 °F 62% 30.26 in 10.0 mi Calm Calm - N/A   Clear
8:36 AM 73.6 °F - 58.1 °F 58% 30.26 in 10.0 mi Calm Calm - N/A   Clear
8:56 AM 74.3 °F - 57.7 °F 56% 30.26 in 10.0 mi Calm Calm - N/A   Clear
9:16 AM 76.1 °F - 58.8 °F 55% 30.26 in 10.0 mi Calm Calm - N/A   Clear
9:36 AM 75.7 °F - 57.6 °F 53% 30.26 in 10.0 mi South 3.5 mph - N/A   Clear
9:56 AM 76.1 °F - 58.5 °F 54% 30.26 in 10.0 mi South 3.5 mph - N/A   Clear
10:16 AM 77.7 °F - 60.1 °F 54% 30.26 in 10.0 mi Calm Calm - N/A   Clear
10:36 AM 78.4 °F - 60.6 °F 54% 30.26 in 10.0 mi Calm Calm - N/A   Clear
10:56 AM 79.5 °F - 59.7 °F 51% 30.26 in 10.0 mi South 3.5 mph - N/A   Clear
11:15 AM 80.4 °F 81.2 °F 60.3 °F 50% 30.26 in 10.0 mi SW 3.5 mph - N/A   Clear
11:36 AM 79.3 °F - 61.7 °F 55% 30.27 in 10.0 mi ENE 4.6 mph - N/A   Clear
11:56 AM 79.3 °F - 61.5 °F 54% 30.27 in 10.0 mi NE 3.5 mph - N/A   Clear
12:15 PM 81.0 °F 82.1 °F 62.2 °F 53% 30.27 in 10.0 mi Calm Calm - N/A   Clear
12:36 PM 80.4 °F 81.4 °F 61.5 °F 52% 30.27 in 10.0 mi Calm Calm - N/A   Clear
12:56 PM 80.2 °F 81.1 °F 60.8 °F 51% 30.27 in 10.0 mi Calm Calm - N/A   Clear
1:15 PM 80.2 °F 81.1 °F 60.8 °F 51% 30.27 in 10.0 mi Calm Calm - N/A   Scattered Clouds
1:36 PM 80.8 °F 81.4 °F 60.1 °F 49% 30.27 in 10.0 mi West 4.6 mph - N/A   Clear
1:56 PM 81.5 °F 82.2 °F 61.2 °F 50% 30.27 in 10.0 mi Calm Calm - N/A   Clear
2:15 PM 81.5 °F 82.4 °F 61.7 °F 51% 30.27 in 10.0 mi West 3.5 mph - N/A   Clear
2:36 PM 82.0 °F 82.7 °F 61.0 °F 49% 30.26 in 10.0 mi WNW 5.8 mph - N/A   Clear
2:55 PM 82.4 °F 82.6 °F 59.9 °F 46% 30.26 in 10.0 mi NW 4.6 mph - N/A   Clear
3:16 PM 82.6 °F 82.8 °F 60.1 °F 46% 30.26 in 10.0 mi West 4.6 mph - N/A   Clear
3:36 PM 82.9 °F 83.2 °F 59.9 °F 46% 30.26 in 10.0 mi West 4.6 mph - N/A   Clear
3:55 PM 83.7 °F 83.8 °F 60.4 °F 45% 30.25 in 10.0 mi Calm Calm - N/A   Clear
4:16 PM 82.4 °F 82.9 °F 61.0 °F 48% 30.25 in 10.0 mi SSW 3.5 mph - N/A   Clear
4:35 PM 82.4 °F 82.7 °F 60.3 °F 47% 30.25 in 10.0 mi Calm Calm - N/A   Clear
4:56 PM 82.4 °F 83.0 °F 61.5 °F 49% 30.25 in 10.0 mi SW 3.5 mph - N/A   Clear
5:16 PM 82.6 °F 82.9 °F 60.6 °F 47% 30.25 in 10.0 mi SSW 6.9 mph - N/A   Clear
5:35 PM 82.4 °F 82.7 °F 60.1 °F 47% 30.25 in 10.0 mi SSW 4.6 mph - N/A   Clear
5:56 PM 82.6 °F 82.6 °F 59.5 °F 45% 30.24 in 10.0 mi SSW 5.8 mph - N/A   Clear
6:16 PM 82.6 °F 82.9 °F 60.4 °F 47% 30.24 in 10.0 mi SSW 4.6 mph - N/A   Clear
6:35 PM 82.2 °F 82.3 °F 59.0 °F 45% 30.23 in 10.0 mi SSW 3.5 mph - N/A   Clear
6:56 PM 81.9 °F 82.2 °F 59.9 °F 47% 30.23 in 10.0 mi SSW 4.6 mph - N/A   Clear
7:16 PM 81.0 °F 81.7 °F 60.8 °F 50% 30.23 in 10.0 mi South 4.6 mph - N/A   Clear
7:35 PM 80.1 °F 81.1 °F 61.0 °F 52% 30.23 in 10.0 mi SSW 5.8 mph - N/A   Clear
7:56 PM 79.9 °F - 60.6 °F 52% 30.24 in 10.0 mi WSW 4.6 mph - N/A   Clear
8:16 PM 79.2 °F - 58.6 °F 49% 30.24 in 10.0 mi West 5.8 mph - N/A   Clear
8:35 PM 77.9 °F - 60.1 °F 54% 30.24 in 10.0 mi WSW 3.5 mph - N/A   Clear
8:56 PM 76.1 °F - 62.1 °F 62% 30.24 in 10.0 mi WSW 4.6 mph - N/A   Clear
9:16 PM 75.2 °F - 62.8 °F 65% 30.24 in 10.0 mi WSW 4.6 mph - N/A   Clear
9:35 PM 73.8 °F - 62.6 °F 68% 30.24 in 10.0 mi SW 4.6 mph - N/A   Clear
9:56 PM 72.5 °F - 62.6 °F 71% 30.25 in 10.0 mi South 5.8 mph - N/A   Clear
10:16 PM 71.2 °F - 62.6 °F 74% 30.25 in 10.0 mi SSE 5.8 mph - N/A   Clear
10:35 PM 71.6 °F - 61.9 °F 71% 30.25 in 10.0 mi SSE 8.1 mph - N/A   Clear
10:56 PM 74.5 °F - 59.9 °F 60% 30.25 in 10.0 mi SSE 9.2 mph - N/A   Clear
11:16 PM 73.9 °F - 60.1 °F 62% 30.25 in 10.0 mi SSE 8.1 mph - N/A   Clear
11:35 PM 73.8 °F - 59.9 °F 62% 30.25 in 10.0 mi SSE 9.2 mph - N/A   Clear
11:56 PM 74.3 °F - 59.4 °F 60% 30.25 in 10.0 mi SSE 9.2 mph - N/A   Clear